Location: Goettingen
(51.5300°N, 9.9433°E)
Time: 13:35:46
(UTC+01:00)

ISS - Pass Details

Date: 07 December 2018
Orbit: 401 x 408 km, 51.6° (Epoch: 16 December)

Event Time Altitude Azimuth Distance (km) Brightness Sun altitude
Rises 18:26:54 0° 283° (WNW) 2,320 1.2 -19.8°
Reaches altitude 10° 18:29:01 10° 278° (W) 1,458 0.0 -20.2°
Maximum altitude 18:32:12 54° 201° (SSW) 496 -3.3 -20.7°
Enters shadow 18:32:19 53° 192° (SSW) 498 -3.4 -20.7°
